User: anonymous   Login
Location: Unspecified
(0.0000°N, 0.0000°E)
Time: 17:12:02
(UTC+00:00)
Language:

Tiros 1 - Orbit

View from above orbital plane
View from above orbital plane
View from above satellite
View from above satellite

Ground track
Ground track

The orbit data is extracted from the following two-line orbital elements,

1 00029U 60002B   15245.47979541  .00000013  00000-0  33132-4 0  9992
2 00029  48.3797 285.1746 0024740 306.7128  53.1511 14.73874821960464
Epoch (UTC): 02 September 2015 11:30:54
Eccentricity: 0.0024740
inclination: 48.3797°
perigee height: 631 km
apogee height: 666 km
right ascension of ascending node: 285.1746°
argument of perigee: 306.7128°
revolutions per day: 14.73874821
mean anomaly at epoch: 53.1511°
orbit number at epoch: 96046

The dashed part of the orbit path shows where the satellite is in the earth's shadow,  

DLR